Probability
0 0 3 6 6 10 3 3 3 0 0 0 3 3 6 10 3 3 23 0 0 0 0 0 0 0 0 10 16 23 26 26 35 42 42 32 29 26
6 0 0 6 6 3 3 0 3 3 0 0 0 6 3 0 0 6 13 0 0 0 0 0 0 0 0 0 0 0 0 0 3 0 16 6 16 13
0 0 3 0 10 10 3 3 0 0 0 0 0 0 3 3 0 6 0 6 3 0 0 0 0 0 0 0 0 0 0 0 0 0 0 0 0 0
0 0 3 3 6 3 3 0 3 0 0 0 0 0 0 0 0 3 3 0 6 0 0 0 0 0 0 0 0 0 0 0 0 0 0 0 0 0
0 0 0 0 3 6 3 3 0 0 0 0 0 6 3 0 0 0 0 3 0 0 0 0 0 0 0 0 0 0 0 0 0 0 0 0 0 0
0 0 0 0 0 3 3 3 0 0 0 0 0 6 0 0 0 0 0 0 0 0 0 0 0 0 0 0 0 0 0 0 0 0 0 0 0 0
0 0 0 0 0 3 0 3 3 0 0 0 0 3 0 0 0 0 0 0 0 0 0 0 0 0 0 0 0 0 0 0 0 0 0 0 0 0
0 0 0 0 0 0 0 0 0 0 0 0 0 0 0 0 0 0 0 0 0 0 3 3 0 0 0 0 0 0 0 0 0 0 0 0 0 0
0 0 0 0 0 0 0 0 0 0 0 0 0 0 0 0 0 0 0 0 0 3 0 0 3 0 0 0 0 0 0 0 0 0 0 0 0 0
0 0 0 0 0 0 0 0 0 0 0 0 0 0 0 0 0 0 0 0 0 0 0 0 0 0 0 0 0 0 0 0 0 0 0 0 0 0
0 0 0 3 0 0 3 0 0 0 0 0 0 0 0 0 0 3 0 0 0 0 0 0 0 0 3 3 0 0 0 0 0 0 0 0 0 0
0 0 0 0 0 0 0 0 0 0 0 0 0 0 0 0 0 0 3 0 0 0 0 0 0 0 0 3 3 0 0 0 0 0 0 0 0 0
0 0 0 0 0 0 0 0 0 0 0 0 0 0 0 0 0 0 0 0 0 0 0 0 0 3 0 3 3 3 0 0 0 0 0 0 0 0
0 0 0 0 0 0 0 0 0 0 0 0 0 0 0 0 0 0 0 0 0 0 0 0 0 0 0 0 0 3 3 0 0 0 0 0 0 0
0 0 0 0 0 0 0 0 0 0 0 0 0 0 0 0 0 0 0 0 0 0 0 0 0 0 0 0 0 0 3 3 0 0 0 0 0 0
0 0 0 0 0 0 0 0 0 0 0 0 0 0 0 0 0 0 0 0 0 0 0 0 0 0 0 0 0 0 0 0 0 0 0 0 0 0
0 0 0 0 0 0 0 0 0 0 0 0 0 0 0 0 0 0 0 0 0 0 0 0 0 0 0 0 0 0 0 3 0 0 0 0 0 0
0 0 0 0 0 0 0 0 0 0 0 0 0 0 0 0 0 0 0 0 0 0 0 0 0 0 0 0 0 0 0 0 0 0 0 0 0 0
0 0 0 0 0 0 0 0 0 0 0 0 0 0 0 0 0 0 0 0 0 0 0 0 0 0 0 0 0 0 0 0 0 0 0 0 0 0
0 0 0 0 0 0 0 0 0 0 0 0 0 0 0 0 0 0 0 0 0 0 0 0 0 0 0 0 0 0 0 0 0 0 0 0 0 0
0 0 0 0 0 0 0 0 0 0 0 0 0 0 0 0 0 0 0 0 0 0 0 0 0 0 0 0 0 0 0 0 0 0 0 0 0 0
0 0 0 0 0 0 0 0 0 0 0 0 0 0 0 0 0 0 0 0 0 0 0 0 0 0 0 0 0 0 0 0 0 0 0 0 0 0
0 0 0 0 0 0 0 0 0 0 0 0 0 0 0 0 0 0 0 0 0 0 0 0 0 0 0 0 0 0 0 0 0 0 0 0 0 0
Height
5756 5758 5760 5762 5764 5767 5770 5773 5776 5779 5782 5785 5789 5792 5796 5800 5804 5807 5811 5815 5818 5822 5825 5828 5832 5835 5837 5840 5843 5845 5847 5849 5851 5852 5853 5854 5856 5857
5753 5755 5757 5758 5761 5763 5765 5768 5770 5773 5776 5779 5782 5786 5789 5793 5797 5800 5804 5807 5811 5815 5818 5821 5825 5828 5831 5834 5836 5838 5841 5843 5844 5846 5847 5848 5849 5851
5751 5752 5754 5755 5757 5759 5760 5763 5765 5767 5770 5773 5776 5779 5783 5786 5790 5793 5797 5800 5804 5807 5811 5814 5817 5820 5824 5826 5829 5832 5834 5836 5837 5839 5840 5842 5843 5844
5750 5750 5751 5752 5754 5755 5756 5758 5760 5763 5765 5768 5770 5773 5776 5779 5783 5786 5790 5793 5797 5800 5803 5806 5810 5813 5816 5819 5821 5824 5826 5828 5830 5831 5833 5835 5836 5837
5748 5748 5749 5750 5751 5752 5753 5755 5756 5758 5760 5763 5765 5768 5770 5773 5776 5779 5782 5786 5789 5792 5795 5798 5802 5805 5807 5810 5813 5815 5818 5820 5822 5824 5825 5827 5828 5829
5747 5747 5747 5747 5748 5749 5750 5751 5753 5755 5756 5758 5760 5762 5765 5767 5770 5772 5775 5778 5781 5784 5787 5790 5793 5795 5798 5801 5804 5806 5809 5811 5813 5815 5817 5818 5819 5821
5745 5745 5745 5745 5746 5747 5747 5748 5749 5751 5752 5754 5756 5757 5759 5761 5764 5766 5768 5771 5773 5776 5779 5782 5784 5787 5789 5792 5794 5797 5799 5802 5804 5806 5808 5809 5811 5812
5744 5744 5743 5743 5744 5744 5744 5745 5746 5747 5749 5750 5751 5753 5754 5756 5757 5759 5761 5763 5766 5769 5770 5772 5775 5777 5779 5782 5785 5787 5789 5792 5794 5796 5798 5800 5801 5803
5744 5743 5742 5742 5742 5742 5742 5742 5743 5744 5745 5746 5747 5748 5749 5750 5752 5753 5755 5756 5758 5760 5762 5764 5766 5768 5770 5772 5775 5777 5779 5782 5784 5786 5788 5790 5792 5793
5743 5742 5741 5740 5739 5739 5739 5740 5740 5741 5741 5742 5743 5743 5744 5745 5746 5747 5748 5750 5751 5752 5753 5756 5757 5759 5761 5763 5765 5767 5769 5772 5774 5776 5778 5780 5781 5783
5743 5741 5739 5738 5737 5737 5737 5737 5737 5737 5737 5738 5738 5739 5739 5740 5741 5742 5742 5744 5744 5745 5746 5748 5749 5751 5752 5754 5756 5757 5759 5761 5763 5765 5767 5769 5771 5772
5741 5740 5738 5737 5736 5735 5734 5734 5733 5733 5733 5733 5733 5733 5734 5734 5735 5736 5736 5737 5738 5739 5739 5740 5741 5742 5744 5745 5747 5748 5750 5751 5753 5755 5756 5758 5759 5761
5739 5738 5736 5735 5733 5732 5731 5731 5730 5729 5729 5729 5728 5728 5728 5729 5729 5730 5730 5731 5731 5732 5732 5733 5733 5734 5735 5737 5737 5738 5740 5741 5743 5744 5745 5747 5748 5750
5737 5735 5734 5732 5731 5729 5728 5727 5726 5725 5725 5724 5724 5723 5723 5723 5723 5724 5724 5724 5724 5725 5725 5725 5726 5726 5727 5728 5729 5729 5730 5731 5732 5733 5734 5735 5736 5738
5735 5733 5731 5730 5728 5726 5725 5724 5722 5721 5721 5720 5719 5718 5718 5718 5717 5717 5717 5717 5717 5717 5717 5717 5718 5718 5718 5719 5720 5720 5721 5721 5721 5722 5723 5724 5725 5726
5731 5729 5727 5726 5724 5723 5721 5720 5718 5717 5716 5715 5714 5713 5712 5712 5711 5711 5711 5710 5710 5710 5709 5709 5710 5710 5710 5710 5710 5711 5711 5712 5712 5712 5712 5713 5714 5715
5727 5725 5723 5721 5720 5718 5716 5715 5714 5712 5711 5710 5708 5708 5707 5706 5705 5704 5703 5703 5702 5702 5701 5701 5700 5701 5701 5701 5701 5701 5701 5701 5701 5701 5702 5702 5703 5704
5722 5720 5718 5716 5714 5713 5711 5709 5708 5707 5705 5704 5702 5701 5700 5699 5698 5697 5696 5695 5694 5694 5693 5692 5691 5691 5691 5691 5691 5690 5690 5690 5690 5690 5690 5691 5692 5692
5715 5713 5711 5709 5708 5706 5705 5703 5701 5700 5698 5697 5695 5694 5693 5692 5690 5689 5688 5687 5686 5685 5683 5682 5681 5681 5681 5681 5680 5679 5679 5678 5678 5679 5679 5679 5680 5681
5708 5706 5704 5702 5700 5699 5697 5695 5694 5692 5690 5689 5687 5686 5684 5683 5682 5680 5679 5677 5676 5675 5673 5672 5671 5670 5669 5669 5669 5668 5667 5666 5666 5666 5666 5666 5667 5668
5700 5698 5696 5694 5692 5690 5688 5687 5685 5683 5681 5680 5678 5677 5675 5673 5672 5670 5668 5667 5665 5664 5662 5661 5659 5658 5656 5656 5656 5656 5655 5654 5653 5653 5653 5653 5654 5654
5691 5689 5687 5685 5683 5681 5679 5677 5675 5674 5672 5670 5668 5666 5664 5663 5661 5659 5657 5655 5654 5652 5650 5649 5647 5645 5643 5642 5642 5642 5641 5641 5640 5639 5639 5639 5639 5640
5681 5679 5677 5675 5673 5671 5669 5667 5665 5663 5661 5659 5657 5655 5653 5651 5649 5647 5644 5642 5641 5639 5637 5635 5633 5631 5629 5628 5626 5626 5625 5625 5624 5624 5625 5624 5624 5625
Wind_Speed
12 14 15 17 19 21 23 25 26 28 28 30 31 32 33 34 34 34 34 34 34 35 35 34 33 32 31 30 29 29 28 28 28 28 27 26 25 25
10 12 14 15 17 19 21 23 25 27 27 29 30 31 33 33 34 34 34 35 35 34 35 36 35 35 34 33 31 31 30 30 30 29 28 28 27 27
7 9 11 13 15 17 19 22 23 25 26 26 28 30 32 33 33 34 33 34 34 35 35 37 37 36 36 35 34 33 32 32 31 30 30 29 29 28
6 7 9 11 12 14 17 19 21 22 24 24 26 27 29 30 31 33 33 34 35 36 36 36 37 37 37 37 36 35 34 34 33 33 32 31 31 31
5 6 8 9 10 12 15 16 18 20 21 22 23 24 26 27 30 31 33 33 34 35 36 36 37 38 38 38 38 37 36 36 35 34 34 34 33 32
4 5 7 8 10 11 13 15 16 18 19 21 21 23 24 25 27 29 31 32 33 33 34 36 37 39 39 39 39 39 39 38 37 36 36 36 35 34
4 5 6 8 9 10 12 14 15 17 18 20 20 21 23 24 25 27 29 31 32 32 34 36 37 38 39 40 40 40 40 40 39 39 38 37 36 36
4 4 5 7 9 10 11 13 14 16 17 19 20 21 22 23 23 24 26 28 29 31 32 33 35 37 39 40 40 40 41 41 41 40 39 38 38 37
6 5 5 6 7 9 10 11 12 14 16 18 19 20 21 22 23 23 25 26 28 29 30 31 33 34 36 37 39 40 40 40 40 40 39 40 39 39
7 6 6 6 7 8 9 11 12 13 14 16 18 19 20 21 21 22 23 25 26 28 30 32 33 34 35 36 37 39 40 41 41 42 42 41 41 40
8 8 8 7 7 8 9 10 12 13 14 15 17 19 19 20 21 22 22 23 24 26 28 30 32 33 34 35 36 37 38 40 40 40 40 42 42 42
9 9 9 8 8 8 9 10 11 12 14 15 17 18 19 20 21 21 22 23 24 25 27 28 29 31 32 34 35 36 38 39 40 40 41 42 42 43
11 10 10 10 10 10 10 11 12 12 13 14 15 17 18 19 20 22 22 23 24 25 26 27 28 30 31 32 33 35 36 37 39 39 40 41 42 42
12 11 11 11 11 11 11 12 12 13 13 14 15 17 18 19 20 21 23 24 25 26 26 27 28 29 30 31 32 34 35 36 37 38 39 40 41 42
14 13 13 13 13 13 13 14 14 14 15 15 16 17 18 19 20 21 23 24 25 26 27 27 28 29 30 30 31 33 34 35 36 37 38 39 40 40
16 15 15 15 15 15 15 15 15 16 16 17 18 18 19 20 21 22 23 25 25 26 27 28 29 29 30 31 32 32 34 35 36 37 37 38 39 40
18 17 17 17 18 18 18 18 18 18 19 19 19 20 21 22 22 23 24 25 26 27 28 29 30 31 32 32 33 34 35 36 37 37 37 38 39 39
20 20 20 20 20 20 20 20 21 21 21 21 22 22 22 23 24 25 26 27 27 28 30 31 32 33 33 34 34 35 35 36 37 38 38 38 39 40
22 22 22 23 23 23 23 23 23 24 24 24 25 25 25 26 26 27 27 28 29 30 31 32 33 34 35 35 36 37 38 37 38 39 39 40 39 39
24 24 24 25 25 25 25 25 26 26 26 27 27 28 28 29 29 30 30 31 31 32 32 33 34 35 36 37 37 38 39 39 39 40 40 40 40 40
27 27 27 27 28 28 28 28 28 28 28 29 29 30 31 31 32 33 33 34 34 35 35 35 36 37 38 39 39 39 40 40 41 41 41 41 42 42
30 30 30 30 30 31 31 31 31 31 31 31 32 32 33 34 35 35 36 37 38 38 38 39 39 40 40 41 42 42 42 43 43 44 44 44 43 43
32 32 32 32 33 33 33 33 33 33 34 34 34 35 36 37 37 38 39 40 40 41 41 42 42 43 43 44 44 44 45 45 45 45 46 46 46 46
Wind_Direction
233 231 228 229 232 232 230 231 232 231 231 231 232 232 231 230 231 232 232 231 232 233 233 232 233 233 235 237 239 242 244 246 249 252 253 255 255 256
234 232 230 230 232 232 231 232 233 233 232 232 233 233 232 231 231 232 234 234 234 234 235 234 234 235 237 238 240 242 245 248 251 254 254 255 255 257
236 233 231 229 230 232 232 232 234 233 233 233 233 233 233 233 233 234 234 235 235 236 236 236 236 237 239 240 241 243 246 248 250 253 254 255 256 259
243 237 233 232 232 232 231 231 234 233 232 233 234 234 233 233 235 236 236 236 237 238 238 238 239 239 239 240 242 244 245 247 249 252 254 255 257 259
253 244 239 236 235 234 232 231 232 232 232 234 234 233 234 234 236 238 237 236 238 240 241 241 240 241 242 242 244 244 245 247 249 252 253 254 256 259
270 255 248 241 238 237 236 234 234 235 235 236 237 236 235 236 237 238 239 239 240 242 244 244 246 245 243 243 244 244 245 247 248 250 253 254 256 258
299 272 257 247 243 244 239 237 237 238 239 238 239 240 237 239 240 240 241 242 243 244 246 246 247 247 246 246 246 246 247 248 249 250 252 253 255 257
332 303 277 262 255 253 246 243 240 239 238 239 242 244 242 243 243 243 242 243 243 245 247 247 247 248 248 249 249 250 249 248 249 250 250 252 253 256
339 322 303 283 270 261 254 250 246 242 242 243 244 246 246 245 245 246 246 246 246 247 247 248 249 250 250 250 250 250 249 248 248 249 251 253 254 256
341 327 313 298 280 270 261 255 252 250 248 248 247 248 248 247 248 249 249 249 249 248 249 250 251 251 251 252 252 251 250 251 251 252 253 253 254 256
332 326 316 301 288 274 268 263 260 258 257 257 253 251 252 251 251 252 252 252 252 252 251 251 251 252 253 253 253 252 252 252 254 255 255 254 254 255
325 321 317 307 298 285 276 271 269 267 264 261 257 254 254 255 254 255 257 256 256 255 255 254 252 251 252 254 254 256 257 256 255 256 257 256 255 255
318 314 313 307 300 295 289 281 275 272 269 265 263 259 258 258 258 258 258 258 259 259 257 256 256 255 253 252 254 256 258 259 258 258 258 258 257 257
314 308 302 301 298 293 289 284 282 278 273 269 266 265 261 260 259 259 259 260 261 261 260 259 258 258 256 253 254 256 257 258 259 259 259 259 259 259
311 306 301 297 295 293 289 284 281 278 275 273 271 269 266 264 262 262 262 263 263 261 260 260 260 260 258 257 257 258 258 259 260 261 261 260 259 260
304 301 299 296 294 292 290 287 285 282 278 276 274 272 270 269 267 266 265 266 266 266 263 261 260 261 261 260 261 261 262 263 263 263 263 262 261 261
300 298 295 294 291 289 287 285 284 282 280 278 277 274 273 272 272 271 270 269 269 269 268 265 263 263 263 263 263 263 264 265 265 265 264 264 263 263
297 295 293 292 291 289 287 286 284 283 281 279 278 277 275 274 274 273 273 273 272 271 270 269 268 267 266 265 265 266 266 265 265 265 265 264 263 262
295 292 291 289 288 288 287 286 285 283 281 280 279 278 278 276 275 275 275 274 273 273 272 272 271 271 270 269 268 268 267 267 266 265 265 264 263 263
293 291 289 288 287 286 286 286 285 284 283 280 279 279 278 278 277 277 276 276 276 275 274 274 274 273 272 271 269 268 268 268 267 266 266 265 264 263
292 290 289 287 286 286 285 285 285 285 284 283 282 281 280 280 279 279 278 277 277 276 276 275 275 275 274 273 272 270 268 268 267 267 266 266 264 263
291 290 288 287 285 284 284 284 284 284 284 284 283 283 282 282 281 281 280 279 278 278 277 277 276 276 275 274 272 270 269 268 267 267 266 265 265 263
290 289 289 287 286 284 284 284 284 284 284 284 284 283 283 283 282 282 281 280 279 279 279 278 277 277 276 276 274 272 270 269 268 267 266 265 264 263